Weather History for KHFF - February, 2014

Change the Weather History Date:

Tuesday, February 11, 2014

  Actual Average (KFAY) Record (KFAY)
Temperature  
Mean Temperature 30 °F 47 °F  
Max Temperature 35 °F 58 °F 77 °F (2009)
Min Temperature 26 °F 35 °F 15 °F (1912)
Degree Days  
Heating Degree Days 34 19  
Month to date heating degree days 213  
Since 1 July heating degree days 1939  
Cooling Degree Days 0 0  
Month to date cooling degree days 0  
Year to date cooling degree days 2  
Moisture  
Dew Point 30 °F    
Average Humidity 94    
Maximum Humidity 100    
Minimum Humidity 86    
Precipitation  
Precipitation 0.16 in 0.09 in 1.64 in (1983)
Month to date precipitation 0.99  
Year to date precipitation 4.29  
Sea Level Pressure  
Sea Level Pressure 30.31 in    
Wind  
Wind Speed 7 mph (NE)    
Max Wind Speed 12 mph    
Max Gust Speed 20 mph    
Visibility 4 miles    
Events Rain , Snow    
T = Trace of Precipitation, MM = Missing Value Source: NWS Daily Summary

Daily Weather History Graph

Daily Weather History Graph

Search for Another Location

Airport or City:

Trip Planner

Search our weather history database for the weather conditions in past years. The results will help you decide how hot, cold, wet, or windy it might be!

Date:

Astronomy

Feb. 11, 2014 Rise Set
Actual Time 7:08 AM EST 5:56 PM EST
Civil Twilight 6:42 AM EST 6:22 PM EST
Nautical Twilight 6:12 AM EST 6:52 PM EST
Astronomical Twilight 5:42 AM EST 7:22 PM EST
Moon 3:18 PM EST (2/11) 4:40 AM EST (2/11)
Length of Visible Light 11h 40m
Length of Day
10h 48m
Waxing Gibbous, 90% of the Moon is Illuminated
Feb 11
Waxing Gibbous
Feb 14
Full
Feb 22
Last Quarter
Mar 1
New
Mar 8
First Quarter

Hourly Weather History & Observations

Time (EST) Temp. Windchill Dew Point Humidity Pressure Visibility Wind Dir Wind Speed Gust Speed Precip Events Conditions
12:06 AM 35.6 °F 30.7 °F 35.6 °F 100% 30.25 in 5.0 mi NE 5.8 mph - N/A   Light Drizzle
12:56 AM 34.9 °F - 34.5 °F 99% 30.26 in 5.0 mi East 2.3 mph - 0.01 in Rain Light Rain
1:56 AM 34.9 °F 32.0 °F 34.5 °F 99% 30.25 in 5.0 mi ENE 3.5 mph - 0.01 in   Light Drizzle
2:26 AM 35.6 °F 30.7 °F 35.6 °F 100% 30.23 in 7.0 mi NNE 5.8 mph - N/A   Mostly Cloudy
2:36 AM 35.6 °F 30.7 °F 35.6 °F 100% 30.23 in 8.0 mi NE 5.8 mph - N/A   Mostly Cloudy
2:51 AM 35.6 °F 30.7 °F 33.8 °F 93% 30.23 in 9.0 mi NE 5.8 mph - N/A   Mostly Cloudy
2:56 AM 35.1 °F 30.1 °F 34.3 °F 97% 30.25 in 9.0 mi NE 5.8 mph - N/A   Mostly Cloudy
3:11 AM 35.6 °F 30.7 °F 33.8 °F 93% 30.22 in 10.0 mi NE 5.8 mph - N/A   Mostly Cloudy
3:34 AM 35.6 °F 31.7 °F 33.8 °F 93% 30.22 in 7.0 mi NE 4.6 mph - N/A   Mostly Cloudy
3:54 AM 35.6 °F 29.2 °F 33.8 °F 93% 30.22 in 8.0 mi NNE 8.1 mph - N/A   Mostly Cloudy
3:56 AM 35.1 °F 29.3 °F 34.0 °F 96% 30.24 in 8.0 mi NNE 6.9 mph - N/A   Mostly Cloudy
4:16 AM 35.6 °F 30.7 °F 33.8 °F 93% 30.23 in 7.0 mi NNE 5.8 mph - N/A   Mostly Cloudy
4:56 AM 35.1 °F 29.3 °F 34.0 °F 96% 30.26 in 7.0 mi NNE 6.9 mph - N/A   Mostly Cloudy
5:11 AM 35.6 °F 29.9 °F 33.8 °F 93% 30.25 in 7.0 mi NNE 6.9 mph - N/A   Mostly Cloudy
5:56 AM 35.2 °F 30.3 °F 33.8 °F 94% 30.27 in 7.0 mi NE 5.8 mph - N/A   Mostly Cloudy
6:16 AM 35.6 °F 29.9 °F 33.8 °F 93% 30.26 in 9.0 mi NE 6.9 mph - N/A   Mostly Cloudy
6:26 AM 35.6 °F 30.7 °F 33.8 °F 93% 30.26 in 9.0 mi NE 5.8 mph - N/A   Mostly Cloudy
6:28 AM 35.6 °F 30.7 °F 33.8 °F 93% 30.26 in 9.0 mi NE 5.8 mph - N/A Rain Light Rain
6:53 AM 35.6 °F 31.7 °F 33.8 °F 93% 30.27 in 6.0 mi NE 4.6 mph - N/A Rain Light Rain
6:56 AM 35.1 °F 29.3 °F 34.0 °F 96% 30.29 in 6.0 mi NE 6.9 mph - N/A Rain Light Rain
7:31 AM 35.6 °F 29.2 °F 33.8 °F 93% 30.28 in 6.0 mi NE 8.1 mph - N/A Rain Light Rain Showers
7:46 AM 35.6 °F 31.7 °F 33.8 °F 93% 30.30 in 5.0 mi ENE 4.6 mph - N/A Rain Light Rain Showers
7:56 AM 34.9 °F 28.3 °F 33.6 °F 95% 30.31 in 4.0 mi ENE 8.1 mph - N/A Rain Light Rain Showers
8:16 AM 33.8 °F 26.4 °F 33.8 °F 100% 30.29 in 2.8 mi ENE 9.2 mph - N/A Snow Light Snow Showers
8:41 AM 33.8 °F 28.6 °F 32.0 °F 93% 30.31 in 1.8 mi ENE 5.8 mph - N/A Snow Light Snow
8:46 AM 33.8 °F 28.6 °F 32.0 °F 93% 30.31 in 1.4 mi ENE 5.8 mph - N/A Snow Light Snow
8:49 AM 33.8 °F 28.6 °F 32.0 °F 93% 30.31 in 1.2 mi ENE 5.8 mph - N/A Snow Light Snow
8:54 AM 33.8 °F 28.6 °F 32.0 °F 93% 30.31 in 1.2 mi ENE 5.8 mph - N/A Snow Light Snow
8:56 AM 33.1 °F 26.9 °F 32.5 °F 98% 30.33 in 1.2 mi ENE 6.9 mph - 0.02 in Snow Light Snow
9:01 AM 33.8 °F 28.6 °F 32.0 °F 93% 30.31 in 1.1 mi ENE 5.8 mph - N/A Snow Light Snow
9:11 AM 32.0 °F 27.5 °F 32.0 °F 100% 30.31 in 1.1 mi East 4.6 mph - N/A Snow Light Snow
9:16 AM 32.0 °F 24.2 °F 32.0 °F 100% 30.31 in 1.0 mi East 9.2 mph 19.6 mph N/A Snow Light Snow
9:21 AM 32.0 °F 23.6 °F 32.0 °F 100% 30.31 in 1.4 mi East 10.4 mph 19.6 mph N/A Snow Light Snow
9:26 AM 32.0 °F 23.6 °F 32.0 °F 100% 30.30 in 1.9 mi ENE 10.4 mph 19.6 mph N/A Snow Light Snow
9:41 AM 32.0 °F 23.0 °F 30.2 °F 93% 30.31 in 2.2 mi East 11.5 mph 18.4 mph N/A Snow Light Snow
9:46 AM 32.0 °F 24.8 °F 30.2 °F 93% 30.31 in 2.5 mi East 8.1 mph 18.4 mph N/A Snow Light Snow
9:54 AM 32.0 °F 24.8 °F 30.2 °F 93% 30.31 in 2.8 mi ENE 8.1 mph - N/A Snow Light Snow
9:56 AM 32.0 °F 24.8 °F 30.6 °F 94% 30.33 in 2.8 mi East 8.1 mph - 0.02 in Snow Light Snow
10:01 AM 32.0 °F 26.4 °F 30.2 °F 93% 30.32 in 4.0 mi ENE 5.8 mph - N/A Snow Light Snow
10:06 AM 32.0 °F 25.6 °F 30.2 °F 93% 30.32 in 4.0 mi ENE 6.9 mph - N/A Snow Light Snow
10:36 AM 32.0 °F 26.4 °F 30.2 °F 93% 30.33 in 2.2 mi ENE 5.8 mph - N/A Snow Light Snow
10:41 AM 32.0 °F 24.8 °F 30.2 °F 93% 30.33 in 1.6 mi NE 8.1 mph - N/A Snow Light Snow
10:46 AM 32.0 °F 23.6 °F 28.4 °F 87% 30.32 in 2.0 mi NE 10.4 mph - N/A Snow Light Snow
10:51 AM 32.0 °F 23.6 °F 28.4 °F 87% 30.33 in 3.0 mi NE 10.4 mph - N/A Snow Light Snow
10:56 AM 31.3 °F 22.7 °F 28.8 °F 90% 30.35 in 4.0 mi NE 10.4 mph - N/A Snow Light Snow
11:06 AM 32.0 °F 26.4 °F 28.4 °F 87% 30.33 in 3.0 mi ENE 5.8 mph - N/A Snow Light Snow
11:11 AM 32.0 °F 25.6 °F 28.4 °F 87% 30.33 in 2.2 mi ENE 6.9 mph - N/A Snow Light Snow
11:16 AM 32.0 °F 24.8 °F 28.4 °F 87% 30.33 in 1.5 mi ENE 8.1 mph - N/A Snow Light Snow
11:21 AM 30.2 °F 22.6 °F 28.4 °F 93% 30.33 in 1.0 mi ENE 8.1 mph - N/A Snow Light Snow
11:26 AM 30.2 °F 25.4 °F 28.4 °F 93% 30.33 in 0.8 mi East 4.6 mph - N/A Snow Light Snow
11:31 AM 30.2 °F 23.4 °F 30.2 °F 100% 30.33 in 0.9 mi ENE 6.9 mph - N/A Snow Light Snow
11:39 AM 30.2 °F 26.7 °F 30.2 °F 100% 30.33 in 0.6 mi NE 3.5 mph - N/A Snow Snow
11:44 AM 30.2 °F 24.3 °F 30.2 °F 100% 30.33 in 0.5 mi NNE 5.8 mph - N/A Snow Snow
11:54 AM 30.2 °F 20.8 °F 28.4 °F 93% 30.33 in 1.0 mi NE 11.5 mph 16.1 mph N/A Snow Snow
11:56 AM 30.4 °F 21.5 °F 29.3 °F 96% 30.35 in 1.0 mi NE 10.4 mph - 0.02 in Snow Snow
12:01 PM 30.2 °F 21.9 °F 28.4 °F 93% 30.33 in 1.2 mi NE 9.2 mph - N/A Snow Light Snow
12:06 PM 30.2 °F 21.9 °F 28.4 °F 93% 30.33 in 1.5 mi NE 9.2 mph - N/A Snow Light Snow
12:11 PM 30.2 °F 22.6 °F 28.4 °F 93% 30.33 in 1.4 mi NE 8.1 mph - N/A Snow Light Snow
12:16 PM 30.2 °F 22.6 °F 28.4 °F 93% 30.33 in 1.1 mi NE 8.1 mph - N/A Snow Light Snow
12:21 PM 30.2 °F 23.4 °F 28.4 °F 93% 30.33 in 1.2 mi NE 6.9 mph - N/A Snow Light Snow
12:26 PM 30.2 °F 22.6 °F 30.2 °F 100% 30.33 in 1.2 mi NNE 8.1 mph - N/A Snow Light Snow
12:31 PM 30.2 °F 23.4 °F 28.4 °F 93% 30.33 in 1.1 mi NE 6.9 mph - N/A Snow Light Snow
12:44 PM 30.2 °F 22.6 °F 28.4 °F 93% 30.33 in 1.0 mi NNE 8.1 mph - N/A Snow Light Snow
12:56 PM 29.7 °F 21.3 °F 28.6 °F 96% 30.34 in 0.9 mi NE 9.2 mph - 0.02 in Snow Light Snow
1:01 PM 30.2 °F 23.4 °F 28.4 °F 93% 30.32 in 0.8 mi NNE 6.9 mph - N/A Snow Light Snow
1:26 PM 30.2 °F 22.6 °F 28.4 °F 93% 30.32 in 0.5 mi NE 8.1 mph - N/A Snow Snow
1:51 PM 28.4 °F 19.1 °F 28.4 °F 100% 30.32 in 1.1 mi NNE 10.4 mph - N/A Snow Snow
1:56 PM 29.1 °F 19.4 °F 28.2 °F 96% 30.34 in 1.1 mi NNE 11.5 mph - 0.02 in Snow Light Snow
2:06 PM 28.4 °F 19.1 °F 28.4 °F 100% 30.32 in 1.1 mi NNE 10.4 mph 17.3 mph N/A Snow Light Snow
2:11 PM 28.4 °F 19.7 °F 28.4 °F 100% 30.31 in 1.1 mi NE 9.2 mph - N/A Snow Light Snow
2:21 PM 28.4 °F 19.1 °F 28.4 °F 100% 30.31 in 1.0 mi NE 10.4 mph - N/A Snow Light Snow
2:31 PM 28.4 °F 19.7 °F 28.4 °F 100% 30.31 in 1.1 mi NNE 9.2 mph - N/A Snow Light Snow
2:36 PM 28.4 °F 20.4 °F 28.4 °F 100% 30.31 in 1.2 mi ENE 8.1 mph - N/A Snow Light Snow
2:44 PM 28.4 °F 19.7 °F 28.4 °F 100% 30.32 in 1.5 mi NE 9.2 mph - N/A Snow Light Snow
2:49 PM 28.4 °F 18.5 °F 26.6 °F 93% 30.31 in 1.8 mi ENE 11.5 mph - N/A Snow Light Snow
2:54 PM 28.4 °F 19.7 °F 26.6 °F 93% 30.31 in 1.8 mi NE 9.2 mph - N/A Snow Light Snow
2:56 PM 28.9 °F 20.4 °F 27.7 °F 95% 30.33 in 1.8 mi NE 9.2 mph - 0.02 in Snow Light Snow
3:01 PM 28.4 °F 21.2 °F 28.4 °F 100% 30.32 in 1.5 mi NE 6.9 mph - N/A Snow Light Snow
3:06 PM 28.4 °F 18.5 °F 28.4 °F 100% 30.32 in 1.4 mi NE 11.5 mph - N/A Snow Light Snow
3:16 PM 28.4 °F 18.5 °F 26.6 °F 93% 30.32 in 1.6 mi NE 11.5 mph - N/A Snow Light Snow
3:21 PM 28.4 °F 20.4 °F 26.6 °F 93% 30.32 in 2.2 mi NE 8.1 mph 17.3 mph N/A Snow Light Snow
3:26 PM 28.4 °F 20.4 °F 26.6 °F 93% 30.32 in 2.0 mi NE 8.1 mph - N/A Snow Light Snow
3:31 PM 28.4 °F 21.2 °F 26.6 °F 93% 30.32 in 1.6 mi NE 6.9 mph - N/A Snow Light Snow
3:46 PM 28.4 °F 19.7 °F 26.6 °F 93% 30.32 in 1.4 mi NE 9.2 mph - N/A Snow Light Snow
3:51 PM 28.4 °F 20.4 °F 26.6 °F 93% 30.32 in 1.0 mi NE 8.1 mph - N/A Snow Light Snow
3:56 PM 27.9 °F 21.5 °F 26.8 °F 96% 30.35 in 0.9 mi NE 5.8 mph - 0.01 in Snow Light Snow
4:01 PM 28.4 °F 21.2 °F 26.6 °F 93% 30.32 in 1.0 mi ENE 6.9 mph - N/A Snow Light Snow
4:16 PM 28.4 °F 21.2 °F 26.6 °F 93% 30.33 in 1.2 mi ENE 6.9 mph - N/A Snow Light Snow
4:21 PM 28.4 °F 20.4 °F 26.6 °F 93% 30.32 in 1.9 mi ENE 8.1 mph - N/A Snow Light Snow
4:26 PM 28.4 °F 20.4 °F 26.6 °F 93% 30.32 in 2.5 mi ENE 8.1 mph - N/A Snow Light Snow
4:31 PM 28.4 °F 21.2 °F 26.6 °F 93% 30.33 in 2.0 mi NE 6.9 mph - N/A Snow Light Snow
4:36 PM 28.4 °F 21.2 °F 26.6 °F 93% 30.33 in 1.5 mi NE 6.9 mph - N/A Snow Light Snow
4:41 PM 28.4 °F 21.2 °F 26.6 °F 93% 30.33 in 1.4 mi NE 6.9 mph - N/A Snow Light Snow
4:46 PM 28.4 °F 20.4 °F 26.6 °F 93% 30.33 in 1.5 mi ENE 8.1 mph - N/A Snow Light Snow
4:51 PM 28.4 °F 19.7 °F 26.6 °F 93% 30.33 in 1.8 mi NE 9.2 mph - N/A Snow Light Snow
4:56 PM 28.0 °F 18.6 °F 26.6 °F 94% 30.34 in 2.0 mi NE 10.4 mph - 0.01 in Snow Light Snow
5:01 PM 28.4 °F 21.2 °F 26.6 °F 93% 30.32 in 2.8 mi ENE 6.9 mph - N/A Snow Light Snow
5:06 PM 28.4 °F 19.7 °F 26.6 °F 93% 30.32 in 4.0 mi NE 9.2 mph - N/A Snow Light Snow
5:16 PM 28.4 °F 22.2 °F 26.6 °F 93% 30.32 in 6.0 mi ENE 5.8 mph - N/A Snow Light Snow
5:34 PM 28.4 °F 24.6 °F 26.6 °F 93% 30.32 in 6.0 mi East 3.5 mph - N/A Snow Light Snow
5:55 PM 28.4 °F 22.2 °F 24.8 °F 86% 30.33 in 9.0 mi ENE 5.8 mph - N/A   Mostly Cloudy
5:56 PM 27.7 °F 21.3 °F 25.3 °F 91% 30.35 in 9.0 mi ENE 5.8 mph - N/A   Mostly Cloudy
6:56 PM 27.5 °F 22.2 °F 25.2 °F 91% 30.37 in 10.0 mi NE 4.6 mph - N/A   Mostly Cloudy
7:48 PM 26.6 °F 22.6 °F 24.8 °F 93% 30.36 in 9.0 mi East 3.5 mph - N/A Snow Light Snow
7:56 PM 27.5 °F 23.6 °F 25.5 °F 92% 30.39 in 9.0 mi East 3.5 mph - N/A Snow Light Snow Showers
8:06 PM 26.6 °F - 24.8 °F 93% 30.37 in 8.0 mi East 2.3 mph - N/A   Mostly Cloudy
8:56 PM 27.5 °F 23.6 °F 25.7 °F 93% 30.40 in 9.0 mi East 3.5 mph - N/A   Mostly Cloudy
9:56 PM 27.9 °F 24.0 °F 25.5 °F 91% 30.40 in 9.0 mi East 3.5 mph - N/A   Overcast
10:56 PM 28.2 °F 24.4 °F 26.2 °F 92% 30.40 in 8.0 mi NE 3.5 mph - N/A   Overcast
11:56 PM 28.2 °F 24.4 °F 25.5 °F 90% 30.39 in 9.0 mi ENE 3.5 mph - N/A   Overcast